Weather History for Guymon, OK

Change the Weather History Date:

Saturday, December 29, 2012

  Actual Average Record
Temperature  
Mean Temperature 31 °F 34 °F  
Max Temperature 46 °F 47 °F 74 °F (2005)
Min Temperature 16 °F 21 °F 1 °F (2007)
Degree Days  
Heating Degree Days 34 31  
Month to date heating degree days 778 863  
Since 1 July heating degree days 1511 1754  
Cooling Degree Days 0 0  
Month to date cooling degree days 0 0  
Year to date cooling degree days 1917 1482  
Moisture  
Dew Point 14 °F    
Average Humidity 48    
Maximum Humidity 71    
Minimum Humidity 25    
Precipitation  
Precipitation 0.00 in 0.01 in 2.72 in (2006)
Month to date precipitation 0.71 0.60  
Year to date precipitation 11.50 19.26  
Snow  
Snow 0.00 in - - ()
Month to date snowfall 1.2  
Since 1 July snowfall 1.2  
Snow Depth 0.00 in    
Sea Level Pressure  
Sea Level Pressure 30.27 in    
Wind  
Wind Speed 11 mph (SW)    
Max Wind Speed 20 mph    
Max Gust Speed 24 mph    
Visibility 10 miles    
Events      
T = Trace of Precipitation, MM = Missing Value Source: NWS Daily Summary

Daily Weather History Graph

Daily Weather History Graph

Search for Another Location

Airport:

Trip Planner

Search our weather history database for the weather conditions in past years. The results will help you decide how hot, cold, wet, or windy it might be!

Date:

Astronomy

Dec. 29, 2012 Rise Set
Actual Time 7:57 AM CST 5:38 PM CST
Civil Twilight 7:29 AM CST 6:07 PM CST
Nautical Twilight 6:56 AM CST 6:40 PM CST
Astronomical Twilight 6:25 AM CST 7:11 PM CST
Moon 7:11 PM CST (12/29) 8:35 AM CST (12/29)
Length of Visible Light 10h 38m
Length of Day
9h 41m
Full, 98% of the Moon is Illuminated
Dec 29
Full
Jan 4
Last Quarter
Jan 11
New
Jan 18
First Quarter
Jan 26
Full

Hourly Weather History & Observations

Time (CST) Temp. Windchill Dew Point Humidity Pressure Visibility Wind Dir Wind Speed Gust Speed Precip Events Conditions
12:53 AM 21.9 °F 10.4 °F 12.9 °F 68% 30.24 in 10.0 mi West 11.5 mph - N/A   Scattered Clouds
1:53 AM 23.0 °F 11.1 °F 12.9 °F 65% 30.22 in 10.0 mi WNW 12.7 mph - N/A   Clear
2:53 AM 21.9 °F 11.0 °F 12.0 °F 66% 30.23 in 10.0 mi WNW 10.4 mph - N/A   Clear
3:53 AM 21.0 °F 9.9 °F 12.0 °F 68% 30.27 in 10.0 mi West 10.4 mph - N/A   Clear
4:53 AM 21.9 °F 11.0 °F 12.0 °F 66% 30.28 in 10.0 mi West 10.4 mph - N/A   Clear
5:53 AM 19.9 °F 7.9 °F 10.9 °F 68% 30.30 in 10.0 mi WNW 11.5 mph - N/A   Clear
6:53 AM 19.0 °F 10.0 °F 10.0 °F 68% 30.34 in 10.0 mi West 6.9 mph - N/A   Clear
7:53 AM 18.0 °F 12.7 °F 9.0 °F 68% 30.35 in 10.0 mi SW 3.5 mph - N/A   Clear
8:53 AM 21.9 °F 11.0 °F 10.9 °F 63% 30.36 in 10.0 mi West 10.4 mph - N/A   Clear
9:53 AM 28.0 °F 21.7 °F 12.9 °F 53% 30.36 in 10.0 mi WSW 5.8 mph - N/A   Clear
10:53 AM 39.0 °F 33.4 °F 15.1 °F 38% 30.37 in 10.0 mi WSW 8.1 mph - N/A   Clear
11:53 AM 43.0 °F 36.0 °F 10.0 °F 26% 30.34 in 10.0 mi SW 13.8 mph - N/A   Clear
12:53 PM 44.1 °F 37.7 °F 10.9 °F 26% 30.31 in 10.0 mi SSW 12.7 mph - N/A   Clear
1:53 PM 45.0 °F 38.2 °F 14.0 °F 29% 30.26 in 10.0 mi SSW 15.0 mph - N/A   Clear
2:53 PM 45.0 °F 37.9 °F 12.9 °F 27% 30.24 in 10.0 mi South 16.1 mph - N/A   Clear
3:53 PM 46.0 °F 39.0 °F 15.1 °F 29% 30.23 in 10.0 mi South 17.3 mph 21.9 mph N/A   Clear
4:53 PM 44.1 °F 36.8 °F 15.1 °F 31% 30.24 in 10.0 mi SSW 16.1 mph - N/A   Clear
5:53 PM 35.1 °F 27.9 °F 16.0 °F 46% 30.24 in 10.0 mi South 9.2 mph - N/A   Clear
6:53 PM 32.0 °F 24.8 °F 17.1 °F 54% 30.25 in 10.0 mi South 8.1 mph - N/A   Clear
7:53 PM 30.0 °F 21.7 °F 17.1 °F 59% 30.25 in 10.0 mi South 9.2 mph - N/A   Clear
8:53 PM 28.0 °F 20.0 °F 17.1 °F 63% 30.27 in 10.0 mi South 8.1 mph - N/A   Clear
9:53 PM 28.0 °F 18.6 °F 17.1 °F 63% 30.23 in 10.0 mi South 10.4 mph - N/A   Clear
10:53 PM 28.9 °F 19.8 °F 17.1 °F 61% 30.19 in 10.0 mi South 10.4 mph - N/A   Clear
11:53 PM 27.0 °F 16.7 °F 17.1 °F 66% 30.18 in 10.0 mi South 11.5 mph - N/A   Clear